[Date Prev][Date Next][Thread Prev][Thread Next] - [Date Index][Thread Index][Author Index]

2 Line ISS Keps 7-5



ISS
1 25544U 98067A   01186.45810793  .00040345  00000-0  42458-3 0  1739
2 25544  51.5718 356.2395 0016231 245.6286 207.0484 15.63718235149930


----
Via the sarex mailing list at AMSAT.ORG courtesy of AMSAT-NA.
To unsubscribe, send "unsubscribe sarex" to Majordomo@amsat.org



AMSAT Top AMSAT Home